CAPE
202 52 32 7 2 0 0 0 0 0 0 0 0 0 0 0 1 4 8 2 7 18 24 19 18 38 14 20 12 12 20 32 58 28 20 20 34 43 36 53 41 41 29
48 35 12 4 1 0 0 0 0 0 0 0 0 0 0 0 2 7 12 16 16 18 26 28 24 14 38 26 24 44 43 23 20 26 17 24 32 33 41 45 23 10 25
2 2 2 2 2 3 0 1 0 0 0 0 1 3 1 4 8 18 12 8 23 24 34 31 28 35 24 26 20 18 14 14 17 31 21 13 23 20 28 29 28 25 23
0 0 2 3 4 3 4 3 4 3 5 4 5 5 7 15 17 3 6 11 15 17 40 40 21 21 31 23 6 14 9 13 11 20 13 12 7 12 23 28 17 15 17
1 2 3 4 1 1 3 3 5 6 6 7 9 14 13 12 0 0 0 0 7 12 37 19 46 3 12 1 2 11 14 6 5 14 14 11 10 10 13 19 21 16 13
0 0 0 0 0 1 1 3 4 8 14 14 10 4 6 0 0 0 0 0 0 10 33 32 4 11 0 0 0 4 6 0 1 12 10 10 13 18 15 14 9 15 10
0 0 0 0 0 0 1 6 15 5 9 9 9 4 1 0 0 0 0 0 4 23 30 2 4 4 0 0 0 0 1 0 0 3 20 20 14 18 18 10 10 11 14
0 0 0 0 0 2 4 9 4 6 8 14 11 9 0 0 0 0 0 2 9 26 7 3 4 11 0 0 0 6 5 7 4 0 8 9 16 11 5 4 6 5 10
0 0 0 0 1 1 8 8 4 4 11 10 5 9 3 1 0 0 0 5 7 5 6 4 1 0 0 0 1 8 3 2 0 0 0 0 0 0 0 0 2 4 6
0 0 0 0 2 8 12 5 6 6 11 4 6 4 0 6 0 0 0 1 2 1 9 1 0 0 0 0 0 6 0 0 2 3 2 1 3 4 0 16 9 11 12
0 0 0 3 8 16 11 8 6 6 2 0 0 0 5 1 2 0 0 1 2 1 5 4 0 0 0 0 0 0 0 0 2 3 1 1 0 2 3 7 9 13 8
0 1 4 5 3 8 10 8 6 5 8 3 9 8 3 4 0 0 0 0 0 0 0 2 0 0 0 0 0 0 0 0 1 3 1 1 1 2 3 6 6 11 12
2 4 6 4 4 5 6 0 0 0 0 0 1 7 11 6 0 0 0 0 0 0 0 0 0 0 0 0 0 0 0 0 2 4 1 1 7 8 10 8 8 10 9
2 2 1 3 7 0 0 0 0 0 0 0 0 0 0 0 0 0 0 0 0 0 0 0 0 0 0 0 0 0 0 0 3 2 1 5 9 10 8 8 10 8 9
1 0 1 3 7 1 0 0 0 0 0 0 0 0 0 0 0 0 0 0 0 0 0 0 0 0 0 0 0 0 0 0 0 1 0 8 9 15 8 11 10 9 11
0 0 0 0 0 0 0 0 0 0 0 0 0 0 0 0 0 0 0 0 0 0 0 0 0 0 0 0 0 0 0 0 0 0 0 4 12 13 12 9 13 13 9
0 0 0 0 0 0 0 0 0 0 0 0 0 0 0 0 0 0 0 0 0 0 0 0 0 0 0 0 0 0 0 0 1 0 0 3 13 10 10 9 10 10 8
0 0 0 0 0 0 0 0 0 0 0 0 0 0 0 0 0 0 0 0 0 0 0 0 0 0 0 0 0 0 0 0 0 0 0 6 9 6 6 6 7 7 7
0 0 0 0 0 0 0 0 0 0 0 0 0 0 0 0 0 0 0 0 0 0 0 0 0 0 0 0 0 0 0 6 2 2 3 5 2 3 3 6 4 0 0
0 0 0 0 0 0 0 0 0 0 0 0 0 0 0 0 0 0 0 0 0 0 0 0 0 0 0 0 0 0 0 0 2 8 15 6 1 2 4 4 6 8 7
0 0 0 0 0 0 0 0 0 0 0 0 0 0 0 0 0 0 0 0 0 0 0 0 0 0 0 0 0 0 0 0 3 26 44 12 0 0 2 0 0 6 5
0 0 0 0 0 0 0 0 0 0 0 0 0 0 0 0 0 0 0 0 0 0 0 0 0 0 1 2 2 0 0 0 4 13 37 21 1 0 0 1 2 6 5
0 0 0 0 0 0 0 0 0 0 0 0 0 0 0 0 0 0 0 0 0 0 0 0 1 0 3 4 1 0 0 3 21 30 27 24 12 11 0 0 5 6 6
0 0 0 0 0 0 0 0 0 0 0 0 0 0 0 0 0 0 0 0 0 0 0 0 1 1 3 5 0 0 0 0 3 6 9 12 47 25 6 1 3 6 6
0 0 0 0 0 0 0 0 0 0 0 0 0 0 0 0 0 0 0 0 0 0 0 0 1 1 1 2 0 0 0 1 2 2 0 0 26 22 15 3 4 4 5
0 0 0 0 0 0 0 0 0 0 0 0 0 0 0 0 0 0 0 0 0 0 0 0 0 0 0 0 0 0 0 3 2 0 0 7 12 14 8 9 1 4 4
CIN
-212 -268 -277 -28 -0 -0 -0 -0 -0 -0 -0 -0 -0 -0 -0 -0 -0 -0 -0 -0 -0 -0 -0 -0 -0 -0 -1 -0 -0 -0 -0 -0 -0 -0 -0 -0 -0 -0 -0 -0 -0 -0 -0
-228 -247 -284 -0 -0 -0 -0 -0 -0 -0 -0 -0 -0 -0 -0 -0 -0 -0 -0 -0 -0 -0 -0 -0 -1 -0 -1 -1 -0 -1 -0 -0 -2 -0 -0 -0 -0 -0 -0 -0 -0 -0 -0
-0 -0 -0 -0 -0 -0 -0 -0 -0 -0 -0 -0 -0 -0 -0 -0 -0 -0 -0 -0 -0 -0 -0 -1 -0 -0 -0 -1 -1 -1 -0 -0 -0 -0 -0 -0 -0 -0 -0 -0 -0 -0 -0
-0 -0 -0 -0 -0 -0 -0 -0 -0 -0 -0 -0 -0 -0 -0 -0 -0 -5 -0 -0 -0 -0 -0 -0 -0 -0 -0 -0 -0 -0 -0 -0 -0 -0 -0 -0 -0 -0 -0 -0 -0 -0 -0
-0 -0 -0 -0 -0 -0 -0 -0 -0 -0 -0 -0 -0 -0 -5 -0 -0 -0 -0 -0 -0 -0 -0 -0 -2 -12 -8 -0 -0 -0 -0 -0 -0 -0 -0 -0 -0 -0 -0 -0 -0 -0 -0
-0 -0 -0 -0 -0 -0 -0 -0 -0 -0 -0 -0 -0 -1 -3 -0 -0 -0 -0 -0 -0 -0 -0 -0 -4 -1 -0 -0 -0 -3 -2 -0 -0 -0 -0 -0 -0 -0 -0 -0 -0 -0 -0
-0 -0 -0 -0 -0 -0 -0 -0 -0 -1 -0 -0 -0 -0 -0 -0 -0 -0 -0 -0 -0 -0 -0 -1 -0 -0 -0 -0 -0 -0 -0 -1 -0 -5 -0 -0 -0 -0 -0 -0 -0 -0 -0
-0 -0 -0 -0 -0 -0 -0 -0 -1 -0 -0 -0 -0 -0 -0 -0 -0 -0 -0 -0 -0 -0 -1 -0 -0 -0 -0 -0 -0 -0 -0 -0 -0 -0 -0 -0 -0 -0 -0 -0 -0 -0 -0
-0 -0 -0 -0 -0 -0 -0 -0 -0 -0 -0 -0 -0 -0 -0 -0 -0 -0 -0 -0 -0 -0 -0 -0 -0 -0 -0 -0 -0 -0 -0 -0 -0 -0 -0 -0 -0 -0 -0 -0 -0 -0 -0
-0 -0 -0 -0 -0 -0 -0 -1 -0 -0 -0 -0 -0 -0 -0 -0 -0 -0 -0 -0 -0 -0 -0 -4 -0 -0 -0 -0 -0 -0 -0 -0 -0 -0 -0 -1 -2 -1 -0 -0 -0 -0 -0
-0 -0 -0 -0 -0 -0 -0 -0 -0 -0 -0 -0 -0 -0 -0 -0 -0 -0 -0 -0 -0 -0 -0 -0 -0 -0 -0 -0 -0 -0 -0 -0 -1 -0 -0 -0 -0 -0 -0 -0 -0 -0 -0
-0 -0 -0 -0 -0 -0 -0 -0 -0 -0 -0 -0 -0 -1 -0 -0 -0 -0 -0 -0 -0 -0 -0 -0 -0 -0 -0 -0 -0 -0 -0 -0 -0 -0 -0 -0 -0 -0 -0 -0 -0 -0 -0
-0 -0 -0 -0 -0 -0 -0 -0 -0 -0 -0 -0 -0 -0 -0 -0 -0 -0 -0 -0 -0 -0 -0 -0 -0 -0 -0 -0 -0 -0 -0 -0 -0 -0 -0 -0 -0 -0 -0 -0 -0 -0 -0
-0 -0 -0 -0 -0 -0 -0 -0 -0 -0 -0 -0 -0 -0 -0 -0 -0 -0 -0 -0 -0 -0 -0 -0 -0 -0 -0 -0 -0 -0 -0 -0 -0 -0 -0 -0 -0 -0 -0 -0 -0 -0 -0
-0 -0 -0 -0 -0 -0 -0 -0 -0 -0 -0 -0 -0 -0 -0 -0 -0 -0 -0 -0 -0 -0 -0 -0 -0 -0 -0 -0 -0 -0 -0 -0 -0 -0 -0 -0 -0 -0 -0 -0 -0 -0 -0
-0 -0 -0 -0 -0 -0 -0 -0 -0 -0 -0 -0 -0 -0 -0 -0 -0 -0 -0 -0 -0 -0 -0 -0 -0 -0 -0 -0 -0 -0 -0 -0 -0 -0 -0 -0 -0 -0 -0 -0 -0 -0 -0
-0 -0 -0 -0 -0 -0 -0 -0 -0 -0 -0 -0 -0 -0 -0 -0 -0 -0 -0 -0 -0 -0 -0 -0 -0 -0 -0 -0 -0 -0 -0 -0 -0 -0 -0 -0 -0 -0 -0 -0 -0 -0 -0
-0 -0 -0 -0 -0 -0 -0 -0 -0 -0 -0 -0 -0 -0 -0 -0 -0 -0 -0 -0 -0 -0 -0 -0 -0 -0 -0 -0 -0 -0 -0 -0 -0 -0 -0 -0 -0 -0 -0 -0 -0 -0 -0
-0 -0 -0 -0 -0 -0 -0 -0 -0 -0 -0 -0 -0 -0 -0 -0 -0 -0 -0 -0 -0 -0 -0 -0 -0 -0 -0 -0 -0 -0 -0 -0 -0 -0 -0 -0 -0 -0 -0 -0 -0 -0 -0
-0 -0 -0 -0 -0 -0 -0 -0 -0 -0 -0 -0 -0 -0 -0 -0 -0 -0 -0 -0 -0 -0 -0 -0 -0 -0 -0 -0 -0 -0 -0 -0 -0 -0 -0 -0 -0 -0 -0 -0 -0 -0 -0
-0 -0 -0 -0 -0 -0 -0 -0 -0 -0 -0 -0 -0 -0 -0 -0 -0 -0 -0 -0 -0 -0 -0 -0 -0 -0 -0 -0 -0 -0 -0 -0 -0 -0 -0 -0 -0 -0 -0 -0 -0 -0 -0
-0 -0 -0 -0 -0 -0 -0 -0 -0 -0 -0 -0 -0 -0 -0 -0 -0 -0 -0 -0 -0 -0 -0 -0 -0 -0 -0 -0 -0 -0 -0 -0 -0 -0 -0 -0 -1 -1 -0 -0 -0 -0 -0
-0 -0 -0 -0 -0 -0 -0 -0 -0 -0 -0 -0 -0 -0 -0 -0 -0 -0 -0 -0 -0 -0 -0 -0 -0 -0 -0 -0 -0 -0 -0 -0 -0 -0 -0 -0 -1 -2 -1 -0 -0 -0 -0
-0 -0 -0 -0 -0 -0 -0 -0 -0 -0 -0 -0 -0 -0 -0 -0 -0 -0 -0 -0 -0 -0 -0 -0 -0 -0 -0 -0 -0 -0 -0 -0 -0 -0 -0 -0 -0 -0 -0 -0 -0 -0 -0
-0 -0 -0 -0 -0 -0 -0 -0 -0 -0 -0 -0 -0 -0 -0 -0 -0 -0 -0 -0 -0 -0 -0 -0 -0 -0 -0 -0 -0 -0 -0 -0 -0 -0 -0 -0 -0 -0 -0 -0 -0 -0 -0
-0 -0 -0 -0 -0 -0 -0 -0 -0 -0 -0 -0 -0 -0 -0 -0 -0 -0 -0 -0 -0 -0 -0 -0 -0 -0 -0 -0 -0 -0 -0 -0 -0 -0 -0 -0 -0 -0 -0 -0 -0 -0 -0
Wind_Speed
15 15 15 13 12 11 12 11 10 8 6 5 3 2 1 3 4 6 7 8 6 8 8 9 10 8 7 6 7 8 9 9 9 11 12 14 16 16 15 13 14 13 12
16 16 15 14 13 12 11 11 9 7 4 4 3 2 4 4 5 6 8 8 8 8 8 7 9 7 9 7 7 7 7 8 8 12 12 13 14 15 13 16 12 12 12
16 16 15 14 12 12 11 10 7 6 5 4 3 3 4 5 7 6 7 8 9 8 7 7 9 9 8 6 7 8 7 7 9 10 12 12 12 12 13 14 13 12 12
16 15 14 13 11 11 9 8 6 3 2 1 2 5 5 6 7 8 10 11 12 11 9 9 10 7 6 10 10 9 9 10 11 10 10 11 11 13 11 11 10 8 10
15 14 13 11 10 10 8 7 5 2 2 3 4 5 8 6 10 10 11 12 13 13 11 11 7 10 11 6 6 9 10 12 11 11 11 10 10 10 11 10 11 10 10
14 13 12 10 10 8 6 5 3 3 6 7 7 6 9 8 11 13 13 12 13 13 9 8 9 11 11 10 12 14 14 14 14 11 11 10 14 10 10 10 10 11 9
13 12 11 9 9 8 7 8 9 7 6 5 5 6 10 9 13 14 17 12 12 10 8 8 8 8 9 12 16 17 16 12 17 10 12 12 15 14 14 14 12 11 11
13 12 10 10 9 8 10 7 6 5 4 4 5 5 9 10 15 17 22 12 11 9 10 9 8 8 10 13 15 13 12 12 12 11 12 15 14 15 13 13 14 12 10
12 11 9 9 9 8 11 6 6 4 6 5 5 8 8 9 17 19 19 12 11 10 9 9 7 8 12 13 14 13 14 13 15 12 12 15 16 19 16 9 7 8 6
11 9 10 10 9 9 8 8 7 6 7 6 7 8 9 7 15 17 17 9 10 9 8 3 14 11 13 15 12 12 14 15 16 18 15 13 12 12 14 9 8 10 8
10 10 9 10 9 9 9 8 7 6 6 5 4 3 5 6 9 13 16 10 9 9 7 7 7 15 14 14 11 7 10 13 15 15 14 12 12 12 11 12 12 10 10
10 10 10 9 8 7 7 5 5 3 3 4 3 3 3 3 12 11 12 11 12 9 8 8 8 13 14 13 10 10 13 14 11 12 14 13 15 15 14 14 16 14 11
10 10 9 8 7 7 7 9 8 8 7 7 7 6 5 6 8 11 10 12 9 8 6 10 16 14 11 8 10 17 11 8 10 12 13 14 13 13 15 14 13 16 15
9 9 8 7 9 9 8 9 9 9 8 8 8 8 8 9 10 11 10 9 9 6 10 10 11 11 12 8 8 8 10 11 11 11 13 12 13 14 12 11 12 12 11
7 6 6 7 6 9 10 9 9 9 9 8 8 8 9 9 10 12 11 10 11 13 16 7 9 9 9 10 10 11 11 12 12 11 11 14 13 13 12 12 11 11 9
7 6 5 5 6 6 9 9 13 12 10 11 9 9 6 5 13 16 15 15 19 19 7 9 10 10 11 11 12 12 12 13 13 13 12 13 13 13 13 12 10 10 10
7 6 6 6 6 6 6 5 8 6 6 7 8 7 3 8 14 16 18 17 9 13 10 10 10 11 11 12 12 12 13 13 15 12 11 13 13 12 15 13 12 11 11
9 4 7 7 6 7 7 6 6 7 5 7 5 7 4 7 10 12 16 10 9 9 9 10 10 11 12 12 12 13 13 13 14 12 12 13 13 13 14 13 12 13 13
7 7 7 8 7 6 6 6 6 6 6 6 8 6 8 7 9 7 9 10 10 10 10 10 11 11 12 12 12 13 14 12 13 12 12 12 12 13 14 13 13 18 16
9 7 5 6 6 7 6 7 6 6 6 7 7 10 9 10 9 10 10 10 9 10 11 11 11 11 12 13 13 14 14 13 14 14 13 13 12 12 14 16 14 16 14
7 7 3 7 7 7 7 7 6 6 7 6 6 7 7 7 9 10 10 10 10 10 11 11 11 11 12 12 13 14 15 14 15 14 14 14 14 13 14 14 14 13 14
7 7 7 7 7 8 7 6 6 6 7 7 7 5 6 7 9 9 9 10 10 10 10 11 10 11 12 13 13 15 15 16 16 16 15 15 14 13 14 14 14 13 13
6 6 7 6 6 3 5 6 7 7 7 7 8 8 8 8 9 9 9 9 10 10 10 10 10 11 12 12 13 15 15 15 15 15 15 15 14 15 13 15 16 16 15
7 7 7 7 6 6 7 6 6 4 6 8 8 8 8 8 9 10 9 10 10 10 10 10 10 14 13 12 13 15 14 15 15 15 21 16 14 16 14 14 14 17 14
8 7 7 7 7 6 5 6 7 7 7 7 8 8 8 8 9 9 9 10 10 10 11 11 10 14 16 17 19 23 17 19 19 20 16 18 18 19 16 12 16 15 17
6 6 6 6 6 6 7 7 7 7 8 7 7 8 8 8 9 9 9 11 11 10 13 10 12 17 18 15 18 18 17 19 20 24 19 14 15 15 15 16 22 15 18
Wind_Direction
122 120 123 121 117 115 110 109 112 107 157 144 134 181 286 310 325 323 309 284 302 301 307 302 323 298 287 300 306 300 298 299 302 299 305 302 304 297 297 299 297 301 292
123 119 120 119 115 109 111 110 124 135 132 109 69 302 307 327 320 308 302 317 315 321 321 309 283 317 320 298 275 268 289 302 294 289 288 289 291 291 293 298 296 293 291
117 116 113 110 107 108 108 111 120 129 133 168 208 281 326 330 306 300 321 339 315 317 300 309 300 313 306 305 314 300 302 301 296 288 294 295 297 304 302 294 291 288 292
112 109 107 104 108 105 107 110 107 95 95 332 320 315 309 320 335 15 346 334 319 315 312 303 302 314 323 313 307 306 315 308 303 294 293 297 304 306 292 292 291 282 284
103 99 98 99 101 98 95 93 94 79 18 323 307 309 42 20 29 6 347 327 316 307 304 300 354 352 335 11 315 313 308 305 304 298 295 297 296 304 306 308 297 300 291
102 100 100 101 97 96 95 87 81 30 21 352 28 25 38 56 34 23 356 322 306 301 306 328 347 307 352 9 328 293 284 285 287 291 294 294 298 301 308 303 306 298 296
99 96 95 93 87 87 81 63 39 37 23 35 39 30 69 57 24 11 352 310 300 304 314 359 333 343 10 337 323 307 282 266 241 277 300 308 311 315 311 302 295 288 287
88 84 80 81 80 74 71 65 59 60 47 41 38 9 82 57 27 14 345 313 306 354 0 339 325 341 22 343 324 315 334 328 2 334 319 309 305 303 296 290 285 278 273
83 79 80 78 67 60 64 55 41 32 46 22 30 34 44 52 34 13 347 334 352 350 337 347 21 353 3 339 322 332 337 336 342 312 281 276 278 282 268 288 286 287 285
79 79 68 65 68 61 51 50 36 21 44 15 21 52 56 32 46 18 -0 348 351 336 326 91 59 19 352 339 327 337 343 341 326 325 334 332 328 327 321 326 328 322 287
85 83 83 86 74 68 66 51 46 46 42 38 32 8 60 31 56 26 3 359 350 327 331 341 351 9 338 325 314 345 327 314 333 341 334 335 341 338 336 332 326 307 301
96 92 88 69 64 87 81 84 71 39 134 137 178 144 63 45 58 29 354 338 344 330 333 337 332 317 304 297 298 307 285 291 353 345 342 340 343 337 334 328 316 305 301
96 96 91 92 99 95 70 40 35 15 8 17 4 13 24 20 24 20 347 320 340 335 328 298 282 286 282 319 312 300 279 346 348 346 346 340 334 328 324 318 314 312 309
102 102 89 67 75 43 44 72 41 23 12 31 12 10 9 16 14 354 349 345 345 337 321 294 264 256 258 285 321 359 355 2 346 353 345 332 326 330 326 325 321 322 314
99 96 109 96 86 113 68 35 83 53 37 35 16 15 12 9 2 331 330 334 335 323 319 353 14 3 2 1 1 4 3 356 353 350 345 335 330 329 327 326 318 314 308
105 77 28 70 75 66 135 110 61 103 113 102 85 35 54 30 326 325 322 322 317 311 348 18 16 5 7 2 1 1 2 357 352 347 355 335 330 330 326 325 317 315 311
72 94 101 64 69 64 59 42 131 141 141 161 129 97 18 307 315 321 320 321 283 333 21 17 13 8 5 3 0 2 357 356 348 353 351 333 330 329 331 326 323 319 314
97 1 69 51 53 62 59 54 49 34 55 123 166 62 344 286 298 302 309 342 24 28 20 19 10 5 5 1 358 359 353 353 352 355 346 334 333 332 331 328 325 321 316
68 55 75 79 59 44 63 57 44 43 38 42 37 3 9 324 256 270 355 18 15 19 13 10 11 4 3 360 359 357 354 354 351 352 341 334 333 333 331 330 323 320 310
84 9 25 69 69 63 54 50 48 39 33 26 51 18 11 346 24 26 19 17 16 15 10 3 7 4 4 1 360 357 353 357 351 348 339 337 334 332 335 332 332 328 326
97 89 354 64 54 51 49 43 38 33 27 33 46 39 322 324 24 16 17 10 12 8 11 3 3 5 6 360 2 356 357 357 351 340 340 336 330 337 341 335 333 332 330
69 63 62 62 60 50 28 38 32 30 31 25 20 57 271 20 18 18 17 9 8 5 7 1 359 7 5 357 11 356 0 356 347 337 342 331 330 338 341 340 337 338 336
73 73 68 64 73 89 59 46 36 18 20 28 21 19 16 15 14 18 11 9 6 1 6 1 0 4 3 355 19 360 5 355 339 333 337 326 327 343 348 343 342 342 342
72 65 66 71 39 45 15 34 39 57 9 19 21 16 15 10 11 10 9 5 2 358 3 360 4 2 357 358 19 1 7 352 335 342 330 327 327 345 347 342 341 339 337
50 49 47 43 32 25 35 27 26 15 16 16 15 10 8 6 10 1 8 3 357 354 359 357 1 357 356 11 12 0 1 347 339 335 332 317 347 349 346 343 346 341 345
75 60 53 38 33 29 21 14 12 21 1 9 6 10 358 4 6 350 7 357 351 353 352 353 355 357 353 18 9 353 358 346 343 333 330 337 351 350 349 350 351 346 343